Home > Weather > Clarington > Past weeks

Flag for Canada Past Weather in Clarington, Ontario, Canada — Yesterday and Last 2 Weeks

Now
81 °F

Sunny.


Feels Like: 82 °F
Forecast: 62 / 84 °F
Wind: 14 mph from South

Location: Peterborough Airport

Current Time: Jun 26, 2016 at 11:40:55 AM

Latest Report: Jun 26, 2016 at 11:00 AM


Visibility: 9 mi

Pressure: 30.07 "Hg

Humidity: 58%

Dew Point: 64 °F

Location of ClaringtonLocation

Past Weather in Clarington — Graph

°F

Clarington Temperature Yesterday

Maximum temperature yesterday: 82 °F (at 1:00 PM)
Minimum temperature yesterday: 48 °F (at 4:00 AM)
Average temperature yesterday: 67 °F

High & Low Weather Summary for the Past Weeks

 TemperatureHumidityPressure
High88 °F (Jun 18, 4:00 PM)100% (Jun 14, 4:00 AM)30.27 "Hg (Jun 14, 4:00 AM)
Low36 °F (Jun 14, 6:00 AM)24% (Jun 18, 2:00 PM)29.67 "Hg (Jun 11, 9:00 PM)
Average65 °F64%29.97 "Hg
* Reported Jun 11 10:00 AM — Jun 26 10:00 AM, Clarington, Weather by CustomWeather, © 2016

Note: Actual official high and low records may vary slightly from our data, if they occured in-between our weather recording intervals... More about our weather records

Advertising

Clarington Weather History for the Previous 24 Hours

Scroll right to see more
 ConditionsComfort  
Time TempWeatherWind HumidityBarometerVisibility
10:00 AM
Sun, Jun 26
79 °FSunny.9 mph61%30.08 "Hg9 mi
9:00 AM75 °FSunny.9 mph65%30.09 "Hg9 mi
8:00 AM68 °FSunny.No wind69%30.09 "Hg9 mi
7:00 AM59 °FSunny.No wind88%30.08 "Hg9 mi
6:00 AM54 °FPassing clouds.No wind94%30.10 "Hg9 mi
5:00 AM54 °FOvercast.No wind94%30.10 "Hg9 mi
4:00 AM52 °FPassing clouds.2 mph94%30.11 "Hg9 mi
3:00 AM52 °FClear.2 mph94%30.12 "Hg9 mi
2:00 AM54 °FClear.No wind94%30.14 "Hg9 mi
1:00 AM55 °FPassing clouds.No wind88%30.13 "Hg9 mi
12:00 AM57 °FClear.No wind82%30.11 "Hg9 mi
11:00 PM
Sat, Jun 25
59 °FClear.No wind82%30.12 "Hg9 mi
10:00 PM63 °FSunny.No wind68%30.10 "Hg9 mi
9:00 PM68 °FSunny.8 mph60%30.11 "Hg9 mi
8:00 PM77 °FSunny.3 mph39%30.12 "Hg9 mi
7:00 PM81 °FSunny.6 mph32%30.12 "Hg9 mi
6:00 PM82 °FSunny.6 mph35%30.14 "Hg9 mi
5:00 PM82 °FSunny.8 mph32%30.14 "Hg9 mi
4:00 PM82 °FSunny.8 mph32%30.15 "Hg9 mi
3:00 PM82 °FSunny.9 mph32%30.15 "Hg9 mi
2:00 PM81 °FSunny.12 mph37%30.16 "Hg9 mi
1:00 PM82 °FSunny.7 mph35%30.17 "Hg9 mi
12:00 PM81 °FSunny.6 mph34%30.17 "Hg9 mi
11:00 AM79 °FSunny.2 mph37%30.17 "Hg9 mi
Weather by CustomWeather, © 2016

See weather overviewHow to use our weather pages